P/2007 T4 ( Gibbs )

Japanese version
Home page
Updated on October 12, 2008

---------------------------------------------------------------------

* Profile

Discovery Date October 12, 2007
Magnitude 18.4 mag
Discoverer A. R. Gibbs (Catalina Sky Survey)

* Orbital Elements

Epoch 2007 Aug. 8.0 TT = JDT 2454320.5
T 2007 July 20.74728 TT                                 MPC
q   2.0090037            (2000.0)            P               Q
n   0.08183273     Peri.   42.52641     +0.21276145     -0.94592450
a   5.2543383      Node    37.23346     +0.75181833     -0.00158471
e   0.6176486      Incl.   23.87198     +0.62410077     +0.32438300
P  12.04

* Magnitudes Graph

        m1 = 12.0 + 5 log d + 15.0 log r

---------------------------------------------------------------------

The orbital elements are published on M.P.E.C. 2008-A27.
The magnitudes graphs are made with Comet for Windows.

---------------------------------------------------------------------

Copyright(C) Seiichi Yoshida (comet@aerith.net). All rights reserved.